Regional Weather Roundup
Issued by NWS

Home | Current Version | Previous Version | Graphics & Text | Print | Product List | Glossary On
Versions: 1 2 3 4 5 6 7 8 9 10 11 12 13 14 15 16 17 18 19 20 21 22 23 24 25 26 27 28 29 30 31 32 33 34 35 36 37 38 39 40 41 42 43 44 45 46 47 48 49 50
000
ASUS45 KTFX 270410
RWRMT
MONTANA REGIONAL WEATHER ROUNDUP
NATIONAL WEATHER SERVICE GREAT FALLS MT
1000 PM MDT MON JUN 26 2017

NOTE: "FAIR" INDICATES FEW OR NO CLOUDS BELOW 12000 FEET WITH NO
SIGNIFICANT WEATHER AND/OR OBSTRUCTIONS TO VISIBILITY.

MTZ001>007-043-270500-
WEST OF THE DIVIDE

CITY           SKY/WX    TMP DP  RH WIND       PRES   REMARKS
KALISPELL      CLOUDY    70  58  65 CALM      29.73F
MISSOULA       MOCLDY    77  42  28 W8        29.81R
BUTTE          LGT RAIN  63  52  67 VRB5      30.03R
MULLAN PASS    MOCLDY    63  41  44 SW9       29.96F
ANACONDA         N/A     72  43  35 W12       29.94R
DEER LODGE       N/A     70  46  43 W15G24    29.94R
EUREKA           N/A     75  46  35 CALM      29.74R
HAMILTON         N/A     68  52  56 SE13G24   29.93R
$$

MTZ008-052>055-270500-
SOUTHWEST MONTANA

CITY           SKY/WX    TMP DP  RH WIND       PRES   REMARKS
BOZEMAN        PTCLDY    68  48  48 NE8       29.85R
DILLON         CLOUDY    70  44  39 MISG      29.96R
W YELLOWSTONE  CLOUDY    61  41  48 SE3       30.06S
ENNIS          PTCLDY    70  34  26 W9        29.99R
THREE FORKS      N/A     79  42  26 W5        29.85R
$$

MTZ009-010-012-014-046-048-049-054-270500-
EAST SLOPES AND CENTRAL MONTANA

CITY           SKY/WX    TMP DP  RH WIND       PRES   REMARKS
CUT BANK       MOCLDY    71  44  37 W15       29.77S
GREAT FALLS    CLOUDY    72  46  39 N9        29.77R
MALMSTROM AFB  CLOUDY    76  47  36 N9        29.76R
HELENA         CLOUDY    84  40  21 W24G37    29.79R
CHOTEAU          N/A     72  48  43 CALM      29.81R
$$

MTZ011-013-016-021-045-047-050-051-270500-
NORTH CENTRAL MONTANA

CITY           SKY/WX    TMP DP  RH WIND       PRES   REMARKS
HAVRE          CLOUDY    71  53  52 E3        29.69R
LEWISTOWN      PTCLDY    75  46  35 NE3       29.80S
N BAR RANCH      N/A     77  37  24 SW15      29.86R
CHINOOK          N/A     73  52  46 CALM      29.69R
FORT BENTON      N/A    N/A N/A N/A MISG      29.74S
$$

MTZ017>020-022>027-061-062-270500-
NORTHEAST MONTANA

CITY           SKY/WX    TMP DP  RH WIND       PRES   REMARKS
GLASGOW        MOCLDY    78  32  18 SE9       29.77R
JORDAN           N/A     79  33  19 E5        29.78R
SIDNEY         PTCLDY    74  41  30 S13       29.83F
WOLF POINT     MOCLDY    74  37  26 E5        29.77S
MALTA          CLEAR     73  50  43 SE13      29.70F
PLENTYWOOD       N/A     70  43  37 SE13      29.82F
POPLAR           N/A     73  39  29 E10       29.78F
$$

MTZ028>42-056>058-270500-
SOUTHCENTRAL AND SOUTHEAST MONTANA

CITY           SKY/WX    TMP DP  RH WIND       PRES   REMARKS
BAKER          PTCLDY    71  37  28 SE25G36   29.90F
BILLINGS       PTCLDY    80  44  27 S8        29.78F
LIVINGSTON     PTCLDY    74  40  29 NW16      29.85R
MILES CITY     CLOUDY    78  38  23 SE15G30   29.79S
BIG TIMBER     CLEAR     73  39  29 W8G17     29.88R
FORSYTH          N/A     77  37  24 E8        29.74F
ROUNDUP          N/A     80  40  24 SE6       29.71F
$$

REGIONAL REPORTS...DAKOTAS

CITY           SKY/WX    TMP DP  RH WIND       PRES   REMARKS
WILLISTON      CLOUDY    72  43  35 SE8       29.85F
MINOT          CLEAR     64  44  48 SE10      29.92F
DICKINSON      PTCLDY    64  36  35 SE16      29.93S
BEACH            N/A     68  39  34 SE16G23   29.92F
CROSBY           N/A     66  43  42 SE14      29.85F
TIOGA            N/A     63  41  45 SE12      29.91S
WATFORD CITY     N/A     70  39  32 SE15      29.87F
BISMARCK       CLEAR     60  45  57 SE8       30.00F
GRAND FORKS    CLEAR     54  46  74 S3        30.03F
FARGO          CLEAR     56  39  53 S3        30.06S
BUFFALO SD       N/A     68  39  34 SE22G29   29.90F
RAPID CITY     CLEAR     64  39  39 SE14      30.01S
$$

REGIONAL REPORTS...WYOMING/IDAHO/WASHINGTON

CITY           SKY/WX    TMP DP  RH WIND       PRES   REMARKS
GILLETTE       CLOUDY    73  41  31 SE17G25   29.94F
SHERIDAN       CLOUDY    62  51  67 NW7       29.86F
BUFFALO WY     CLEAR     70  42  36 MISG      29.95F
CODY           CLEAR     76  34  21 NW5       29.92S
YELLOWSTONE LA   N/A     56  42  59 CALM      30.17F
IDAHO FALLS    CLOUDY    73  47  39 NE8       29.93F
SALMON         CLOUDY   N/A N/A N/A W33G48    29.91R
BOISE          PTCLDY    77  53  43 SE8       29.80F
SPOKANE        CLOUDY    69  60  73 SW21G30   29.81S
$$

REGIONAL REPORTS...ALBERTA

CITY           SKY/WX    TMP DP  RH WIND       PRES   REMARKS
EDMONTON       CLEAR     68  59  73 SE6       29.48F
CALGARY        PTCLDY    73  45  35 SW20G26   29.65S
LETHBRIDGE     PTCLDY    68  50  52 SW12      29.67F
MEDICINE HAT   PTCLDY    73  55  53 SW9       29.62R
WATERTON GATE    N/A     64  46  52 S3          N/A
MILK RIVER       N/A     68  48  49 W10         N/A
ONEFOUR          N/A     72  48  43 E5          N/A
$$

REGIONAL REPORTS...SASKATCHEWAN

CITY           SKY/WX    TMP DP  RH WIND       PRES   REMARKS
SWIFT CURRENT  CLEAR     70  43  37 S18G25    29.66F
REGINA         MOCLDY    66  46  48 SE17      29.78S
SASKATOON      PTCLDY    72  50  46 SE21G26   29.65F
CYPRESS HILLS    N/A     68  43  40 SW9         N/A
VAL MARIE        N/A     77  41  27 S20G28      N/A
ROCKGLEN         N/A     70  34  26 S17         N/A
ASSINIBOIA       N/A    N/A N/A N/A SE3         N/A
$$



USA.gov is the U.S. government's official web portal to all federal, state and local government web resources and services.